Regional Weather Roundup
Issued by NWS

Home | Current Version | Previous Version | Graphics & Text | Print | Product List | Glossary On
Versions: 1 2 3 4 5 6 7 8 9 10 11 12 13 14 15 16 17 18 19 20 21 22 23 24 25 26 27 28 29 30 31 32 33 34 35 36 37 38 39 40 41 42 43 44 45 46 47 48 49 50
000
ASUS43 KDTX 290810
RWRMI
MICHIGAN HOURLY REGIONAL WEATHER ROUNDUP
NATIONAL WEATHER SERVICE DETROIT/PONTIAC MI
400 AM EDT WED JUL 29 2015

NOTE: "FAIR" INDICATES FEW OR NO CLOUDS BELOW 12,000 FEET WITH NO
SIGNIFICANT WEATHER AND/OR OBSTRUCTION TO VISIBILITY.

MIZ047>049-052>055-059>063-066>070-074>076-081>083-290900-
SOUTHEAST LOWER MICHIGAN

CITY           SKY/WX    TMP DP  RH WIND       PRES   REMARKS
ADRIAN         PTCLDY    66  64  93 CALM      29.97F
ALMA           CLEAR     68  64  88 CALM      29.94F
ANN ARBOR      CLEAR     62  62 100 CALM      29.97F FOG
BAD AXE        CLEAR     64  61  90 CALM      29.97F
DETROIT CITY   CLEAR     71  63  75 CALM      29.97F
DETROIT        MOCLDY    70  65  84 CALM      29.97F
FLINT          CLEAR     67  60  78 S3        29.97F
GROSSE ILE     CLEAR     72  66  83 CALM      29.95F
HILLSDALE      PTCLDY    72  64  75 SE5       29.97F
HOWELL         PTCLDY    67  64  88 SE5       29.97F

CITY           SKY/WX    TMP DP  RH WIND       PRES   REMARKS
JACKSON        MOCLDY    72  63  73 SE8       29.95F
LAMBERTVILLE   CLEAR     68  65  91 CALM      29.97F
LANSING        PTCLDY    73  61  65 SE6       29.95F
LAPEER         NOT AVBL
MASON          MOCLDY    67  62  83 CALM      29.95F
MONROE         CLEAR     65  64  97 CALM      29.95F
MT. CLEMENS    CLEAR     67  64  93 CALM      29.96F
PONTIAC        CLEAR     65  62  90 CALM      29.97F
PORT HOPE        N/A     73  64  73 SW7       29.95F
PORT HURON     FOG       61  61 100 CALM      29.98F VSB 1/4
TRI CITIES     PTCLDY    72  63  73 S7        29.95F
YPSILANTI      CLEAR     67  62  84 CALM      29.98F
$$
MIZ043>046-050>051-056>058-064>065-071>073-077>080-290900-
SOUTHWEST LOWER MICHIGAN

CITY           SKY/WX    TMP DP  RH WIND       PRES   REMARKS
BATTLE CREEK   CLOUDY    75  62  64 S10       29.94F
BENTON HARBOR  MOCLDY    76  69  79 S5        29.91F
BIG RAPIDS     PTCLDY    69  65  87 CALM      29.92F
COLDWATER      PTCLDY    70  62  75 SE6       29.95F
HOLLAND        MOCLDY    74  66  76 SE6       29.92F
GRAND RAPIDS   PTCLDY    73  65  75 S6        29.92F
KALAMAZOO      MOCLDY    74  64  71 S5        29.94F
MARSHALL       CLOUDY    72  62  71 SE5       29.94F
MUSKEGON       MOCLDY    77  65  66 SE8       29.90F
$$
MIZ016>042-290900-
NORTHERN LOWER MICHIGAN

CITY           SKY/WX    TMP DP  RH WIND       PRES   REMARKS
ALPENA         PTCLDY    67  62  84 CALM      29.93F
BEAVER ISLAND  MOCLDY    68  63  83 SE3       29.87F
BELLAIRE       PTCLDY    66  63  90 CALM      29.89F
CADILLAC       PTCLDY    74  63  69 S6        29.93F
CHARLEVOIX     MOCLDY    71  64  79 SE3       29.91F
FRANKFORT      PTSUNNY   74  65  73 CALM      29.87F
GAYLORD        MOCLDY    72  65  78 SE6       29.94F
GRAYLING       PTCLDY    64  61  92 CALM      29.94F
HARBOR SPRINGS PTCLDY    71  63  74 CALM      29.88F
HOUGHTON LAKE  PTCLDY    71  64  78 SE6       29.94F
MANISTEE       MOCLDY    68  61  77 NE5       29.88F
OSCODA         PTCLDY    69  67  93 CALM      29.93F
PELLSTON       MOCLDY    67  63  87 CALM      29.89F
TRAVERSE CITY  PTCLDY    74  62  66 CALM      29.87F
$$
MIZ007>008-015-290900-
EASTERN UPPER MICHIGAN

CITY           SKY/WX    TMP DP  RH WIND       PRES   REMARKS
KINROSS        MOCLDY    72  64  78 S7        29.89F
MACKINAC ISLAN MOCLDY    73  64  71 S7        29.88F
$$
MIZ004>006-011>014-085-290900-
CENTRAL UPPER MICHIGAN

CITY           SKY/WX    TMP DP  RH WIND       PRES   REMARKS
MANISTIQUE     MOCLDY    70  64  83 S5        29.84F
ESCANABA       CLOUDY    72  68  88 S5        29.82F
MENOMINEE      MOCLDY    73  66  78 SW7       29.83F
SAWYER-GWINN   MOCLDY    67  63  87 S8        29.82F
$$
MIZ001>003-009>011-084-290900-
WESTERN UPPER MICHIGAN

CITY           SKY/WX    TMP DP  RH WIND       PRES   REMARKS
IRON MOUNTAIN  CLOUDY    70  65  84 SE7       29.81F
HOUGHTON       LGT RAIN  73  66  78 W15G22    29.75F
COPPER HARBOR    N/A     73  65  75 VRB6      29.72F
IRONWOOD       PTCLDY    72  55  56 SW10      29.78F
$$

ABBREVIATIONS USED IN REMARKS
   TC - TEMPERATURE IN CELSIUS
  WCI - WIND CHILL INDEX
   HX - HEAT INDEX
  VSB - VISIBILITY




USA.gov is the U.S. government's official web portal to all federal, state and local government web resources and services.